Погода в Глевахе

Украина / Киевская область     50°16′13″N   30°19′28″E
темп.,
°C
ветер,
м/с
пор.,
м/с
влажн.,
%
обл.,
%
осадки,
мм/ч
давл.,
гПа
погр.,
м
19 апреля, пн
пн1900:00+4всв2392100 0.0 101954
03:00+3всв2393100 0.0 101835
06:00+3св349495 0.0 101861
09:00+7всв3480100 0.0 1018386
12:00+10всв346493 0.1 10171259
15:00+11св3456100 0.1 10161478
18:00+10св356870 0.0 1015258
21:00+8св2269100 0.1 101517
20 апреля, вт
вт2000:00+8ссв2481100 0.1 1014103
03:00+7ссв368492 0.1 1012197
06:00+6с489561 0.1 1011270
09:00+7ссв458595 0.1 1012524
12:00+8с5675100 0.0 1010823
15:00+9ссз5670100 0.0 10091091
18:00+9сз5772100 0.0 1009630
21:00+8ссз5982100 0.0 1009430
21 апреля, ср
ср2100:00+7сз4886100 0.1 1009310
03:00+6зсз3689100 0.1 1010219
06:00+4зсз379558 0.0 1011183
09:00+6зсз3683100 0.0 1013271
12:00+9зюз467083 0.0 1013849
15:00+12зюз5757100 0.5 10121523
18:00+13зюз475464 0.2 10121490
21:00+9ююз477571 0.3 1013117
22 апреля, чт
чт2200:00+7ююз410785 0.0 1014184
03:00+6юз388824 0.0 1014138
06:00+5юз37915 0.0 1015117
09:00+11юз477065 0.0 1016369
12:00+15юз575233 0.3 10161604
15:00+16зюз575192 0.6 10151639
18:00+13зюз366890 0.5 1016171
21:00+10юз118569 0.6 101611
23 апреля, пт
пт2300:00+9ююз348298 0.0 101650
03:00+8ю37855 0.0 1015105
06:00+7ююз499062 0.0 1014190
09:00+11юз57746 0.2 1014565
12:00+10зсз8779100 0.0 1015753
15:00+5сз5888100 0.7 1017480
18:00+9з4866100 0.1 10161065
21:00+7юз347825 0.1 101768